FW7345 Weather Reports


time (UTC)temp
F
wind
direction
speed
knots
gust
knots
rain 1hr
in
rain 24hr
in
rain mn
in
humidity
%
barometer
mb
20260508070053 71 0 0.0 0.0 0.00 0.00 0.00 83 1013.5
20260508064552 71 0 0.0 0.0 0.00 0.00 0.00 83 1013.7
20260508063049 71 0 0.0 0.0 0.00 0.00 0.00 82 1013.7
20260508061559 71 0 0.0 0.0 0.00 0.00 0.00 82 1013.4
20260508060058 71 124 0.0 0.9 0.00 0.00 0.00 81 1013.2
20260508054551 71 0 0.0 0.0 0.00 0.00 0.00 81 1013.5
20260508053056 71 0 0.0 3.5 0.00 0.00 0.00 80 1013.6
20260508051604 72 39 0.0 1.7 0.00 0.00 0.00 79 1013.7
20260508050054 72 0 0.0 0.9 0.00 0.00 0.00 80 1013.6
20260508044559 72 271 0.9 1.7 0.00 0.00 0.00 80 1013.5
20260508043054 72 0 0.9 1.7 0.00 0.00 0.00 81 1013.5
20260508041553 72 49 0.0 0.9 0.00 0.00 0.00 82 1013.6
20260508040057 72 0 0.0 0.9 0.00 0.00 0.00 82 1013.7
20260508034553 72 0 0.0 4.3 0.00 0.00 0.00 82 1013.2
20260508033059 71 104 0.9 3.5 0.00 0.00 0.00 84 1012.7
20260508031552 71 0 0.0 0.0 0.00 0.00 0.00 85 1013.7
20260508030055 71 0 0.0 0.0 0.00 0.00 0.00 83 1014.2
20260508024600 72 0 0.0 0.9 0.00 0.00 0.00 82 1014.0
20260508023056 72 0 0.0 0.0 0.00 0.00 0.00 81 1013.8
20260508021611 73 31 0.0 0.9 0.00 0.00 0.00 81 1013.6
20260508020101 73 0 0.0 0.9 0.00 0.00 0.00 79 1013.7
20260508014552 74 0 0.0 0.9 0.00 0.00 0.00 77 1013.5
20260508013054 74 0 0.0 3.5 0.00 0.00 0.00 77 1013.7
20260508011607 74 0 0.0 0.9 0.00 0.00 0.00 79 1013.5
20260508010054 74 0 0.0 2.6 0.00 0.00 0.00 79 1013.7
20260508004557 75 4 0.9 3.5 0.00 0.00 0.00 78 1013.9
20260508003051 75 57 0.9 7.0 0.00 0.00 0.00 77 1013.5
20260508001553 75 62 1.7 5.2 0.00 0.00 0.00 77 1013.6
20260508000052 75 23 2.6 5.2 0.00 0.00 0.00 77 1013.7
20260507234557 76 347 1.7 4.3 0.00 0.00 0.00 78 1013.8
20260507233055 77 342 1.7 4.3 0.00 0.00 0.00 77 1013.8
20260507231551 78 54 1.7 4.3 0.00 0.00 0.00 76 1013.6
20260507230053 78 356 0.9 3.5 0.00 0.00 0.00 76 1013.5
20260507224556 78 352 0.0 2.6 0.00 0.00 0.00 77 1013.4
20260507223056 78 38 0.9 5.2 0.00 0.00 0.00 75 1013.2
20260507221553 77 32 0.9 5.2 0.00 0.00 0.00 79 1013.3
20260507220051 77 321 0.9 5.2 0.00 0.00 0.00 77 1013.3
20260507214549 77 6 0.9 5.2 0.00 0.00 0.00 78 1013.6
20260507213051 77 53 0.0 5.2 0.00 0.00 0.00 78 1013.8
20260507211555 76 0 0.9 5.2 0.00 0.00 0.00 79 1013.9
20260507210053 77 319 0.0 2.6 0.00 0.00 0.00 79 1014.1
20260507204553 76 75 1.7 6.1 0.00 0.00 0.00 77 1014.2
20260507203053 76 8 2.6 7.0 0.00 0.00 0.00 77 1014.2
20260507201605 76 11 1.7 6.1 0.00 0.00 0.00 77 1014.4
20260507200057 77 19 2.6 6.1 0.00 0.00 0.00 76 1014.4
20260507194551 76 1 0.9 4.3 0.00 0.00 0.00 79 1014.3
20260507193054 74 36 2.6 8.7 0.00 0.00 0.00 79 1014.7
20260507191552 73 46 1.7 5.2 0.00 0.00 0.00 81 1015.2
20260507190051 72 44 4.3 7.8 0.00 0.00 0.00 82 1015.5
20260507184551 72 24 1.7 5.2 0.00 0.00 0.00 83 1015.8
20260507183054 71 360 2.6 6.1 0.00 0.00 0.00 83 1015.9
20260507181553 71 31 2.6 7.8 0.00 0.00 0.00 83 1015.8
20260507180053 70 350 2.6 7.8 0.00 0.00 0.00 84 1016.0
20260507174601 70 332 1.7 6.1 0.00 0.00 0.00 84 1016.1
20260507173053 70 45 1.7 7.8 0.00 0.00 0.00 86 1016.1
20260507171604 68 25 2.6 5.2 0.00 0.00 0.00 85 1016.6
20260507170055 67 35 1.7 5.2 0.00 0.00 0.00 88 1016.7
20260507164551 67 11 2.6 6.1 0.00 0.00 0.00 88 1016.8
20260507163110 66 200 1.7 5.2 0.00 0.00 0.00 88 1016.6
20260507161554 66 13 2.6 7.0 0.00 0.00 0.00 89 1016.5
20260507160055 65 8 2.6 6.1 0.00 0.00 0.00 90 1016.0
20260507154557 64 333 2.6 6.1 0.00 0.00 0.00 91 1016.0
20260507153051 64 341 1.7 7.8 0.00 0.00 0.00 91 1016.1
20260507151552 65 20 2.6 7.0 0.00 0.00 0.00 91 1016.0
20260507150055 0 0.0 0.0 0.00 0.00 0.00 1016.4
20260507144614 0 0.0 0.0 0.00 0.00 0.00 1016.6
20260507143054 0 0.0 0.0 0.00 0.00 0.00 1016.4
20260507141610 0 0.0 0.0 0.00 0.00 0.00 1015.9
20260507140055 0 0.0 0.0 0.00 0.00 0.00 1015.6
20260507134553 0 0.0 0.0 0.00 0.00 0.00 1015.2
20260507133051 0 0.0 0.0 0.00 0.00 0.00 1015.1
20260507131553 0 0.0 0.0 0.00 0.00 0.00 1015.7
20260507130108 0 0.0 0.0 0.00 0.00 0.00 1016.1
20260507124556 0 0.0 0.0 0.00 0.00 0.00 1016.0
20260507123053 0 0.0 0.0 0.00 0.00 0.00 1015.6
20260507121551 0 0.0 0.0 0.00 0.00 0.00 1015.4
20260507120050 0 0.0 0.0 0.00 0.00 0.00 1015.0
20260507114556 0 0.0 0.0 0.00 0.00 0.00 1014.5
20260507113055 0 0.0 0.0 0.00 0.00 0.00 1014.6
20260507111551 0 0.0 0.0 0.00 0.00 0.00 1014.0
20260507110054 0 0.9 3.5 0.00 0.00 0.00 1013.8
20260507104558 66 4 0.0 3.5 0.00 0.00 0.00 92 1014.2
20260507103052 65 10 0.0 3.5 0.00 0.00 0.00 92 1014.1
20260507101553 65 355 0.9 4.3 0.00 0.00 0.00 92 1013.9
20260507100054 65 0 0.0 2.6 0.00 0.00 0.00 92 1013.9
20260507094552 65 360 1.7 4.3 0.00 0.00 0.00 92 1013.6
20260507093058 65 29 0.9 3.5 0.00 0.00 0.00 92 1013.5
20260507091559 65 345 1.7 4.3 0.00 0.00 0.00 92 1013.2
20260507090053 65 8 1.7 6.1 0.00 0.00 0.00 91 1013.3
20260507084551 65 55 1.7 6.1 0.00 0.00 0.00 91 1013.1
20260507083049 65 349 1.7 6.1 0.00 0.00 0.00 90 1013.4
20260507081550 65 1 0.9 5.2 0.00 0.00 0.00 90 1013.6
20260507080050 65 8 1.7 4.3 0.00 0.00 0.00 90 1013.4
20260507074552 66 57 2.6 6.1 0.00 0.00 0.00 89 1013.4
20260507073057 66 5 2.6 7.8 0.00 0.00 0.00 89 1013.6
20260507071553 66 21 2.6 7.8 0.00 0.00 0.00 89 1013.7